7 * 24
多渠道服务支持
HULIANWANG DIGUI-165(NORAD编号68657)是中国"互联网低轨"(HULIANWANG DIGUI)卫星星座中的一颗低轨卫星,属于国网星座体系的组成部分。该卫星由北美防空司令部分配NORAD编号68657作为空间目标识别码,运行在近地轨道,主要承担星网络通信等功能。作为中国低轨互联网星座建设的一部分,它与同批次卫星共同构建天地一体化网络,为全球用户提供宽带互联网接入服务。NORAD编号系统是国际通用的空间目标识别体系,确保该卫星在轨道运行中被持续监测和跟踪。
中国
(CN)
| 数据来源 | 国际轨道数据 |
| 星历时间: | 2026-05-29T02:50:12+0800 2天前 查看轨道信息 |
| 半长轴: | 7529.228km |
| 偏心率: | 0.0001565 |
| 轨道倾角: | 86.502° |
| 近地点辐角 | 67.876° |
| 升交点赤经 | 50.441° |
| 平近点角 | 292.254° |
| 近地点: | 1149.912km |
| 远地点: | 1152.27km |
| 周期: | 108.364分钟 |
| 每日圈数: | 13.288537 |